Regional Weather Roundup
Issued by NWS

Home | Current Version | Previous Version | Graphics & Text | Print | Product List | Glossary On
Versions: 1 2 3 4 5 6 7 8 9 10 11 12 13 14 15 16 17 18 19 20 21 22 23 24 25 26 27 28 29 30 31 32 33 34 35 36 37 38 39 40 41 42 43 44 45 46 47 48 49 50
000
ASUS43 KLOT 242358
RWRIL

ILLINOIS REGIONAL WEATHER ROUNDUP
NATIONAL WEATHER SERVICE CHICAGO/ROMEOVILLE IL
700 PM CDT THU JUL 24 2014

NOTE: "FAIR" INDICATES FEW OR NO CLOUDS BELOW 12,000 FEET WITH NO
SIGNIFICANT WEATHER AND/OR OBSTRUCTIONS TO VISIBILITY.

* THESE STATIONS ARE NOT UNDER NWS QUALITY CONTROL. THEY ALSO MAY NOT
  REPORT WEATHER SUCH AS PRECIPITATION OR FOG.

ILZ001-002-007-009-015-016-024-250100-
NORTHWEST ILLINOIS

CITY           SKY/WX    TMP DP  RH WIND       PRES   REMARKS
MOLINE         PTSUNNY   73  59  61 S3        30.07S
6HR MIN TEMP:  73; 6HR MAX TEMP:  79;

$$

ILZ003-004-008-010-011-017-018-250100-
NORTH CENTRAL ILLINOIS

CITY           SKY/WX    TMP DP  RH WIND       PRES   REMARKS
ROCKFORD       NOT AVBL
$$

ILZ005-006-012>014-019>023-250100-
NORTHEAST ILLINOIS

CITY           SKY/WX    TMP DP  RH WIND       PRES   REMARKS
CHICAGO-OHARE  MOSUNNY   71  43  36 NE7       30.09S
6HR MIN TEMP:  71; 6HR MAX TEMP:  75;

CHICAGO-MIDWAY MOSUNNY   72  46  39 E8        30.09S
6HR MIN TEMP:  72; 6HR MAX TEMP:  75;

AURORA         SUNNY     72  51  47 CALM      30.09R
6HR MIN TEMP:  72; 6HR MAX TEMP:  77;

WAUKEGAN       SUNNY     65  44  46 SE5       30.09S
6HR MIN TEMP:  65; 6HR MAX TEMP:  70;

DUPAGE AIRPORT SUNNY     71  48  43 SE7       30.08R
6HR MIN TEMP:  71; 6HR MAX TEMP:  77;

WHEELING       SUNNY     70  44  39 NE6       30.11R
6HR MIN TEMP:  70; 6HR MAX TEMP:  74;

$$

LMZ740>746-250100-
SOUTHERN LAKE MICHIGAN

STATION/POSITION SKY/WX   TEMP    WIND        PRES    VSBY  WAVE
                          AIR SEA DIR/SP/G                  HT/PER
                          (F)     (DEG/KT/KT) (MB)    (MI)  (FT/S)
SOUTHERN BUOY              62     300/  4/  6 1019.3S         1
WAUKEGAN HARBOR            65     120/  5/  6   N/A
HARRISON CRIB              65      10/  7/  8   N/A
CALUMET HARBOR             66      10/  5/  7 1017.9F
BURNS HARBOR               66      30/  8/  9 1020.0S
MICHIGAN CITY              66     350/  9/ 11   N/A
MICHIGAN CITY 6N           66 69   40/  6/ 10   N/A           2/ 2
ST. JOSEPH                 58 51   30/  2/  4   N/A           1/ 3
$$

ILZ025>027-034>036-040-047-049-050-058-095>099-250100-
WEST-CENTRAL ILLINOIS

CITY           SKY/WX    TMP DP  RH WIND       PRES   REMARKS
$$

ILZ028>032-037-038-041>044-048-051>054-059>061-250100-
CENTRAL ILLINOIS

CITY           SKY/WX    TMP DP  RH WIND       PRES   REMARKS
PEORIA         NOT AVBL
SPRINGFIELD    SUNNY     77  56  48 NE5       30.08S
6HR MIN TEMP:  77; 6HR MAX TEMP:  81;

TAYLORVILLE    NOT AVBL
$$

ILZ033-039-045-046-055>057-062-063-250100-
EAST-CENTRAL ILLINOIS

CITY           SKY/WX    TMP DP  RH WIND       PRES   REMARKS
CHAMPAIGN      SUNNY     74  56  53 NE7       30.07F
$$

ILZ079-100>102-250100-
SOUTHWEST ILLINOIS

CITY           SKY/WX    TMP DP  RH WIND       PRES   REMARKS
ALTON          SUNNY     77  54  44 N6        30.06S
CAHOKIA*       MOSUNNY   80  55  42 E7        30.05S HX  80
$$

ILZ064>066-069>071-074>076-080>082-084>086-088>090-092>094-250100-
SOUTH-CENTRAL ILLINOIS

CITY           SKY/WX    TMP DP  RH WIND       PRES   REMARKS
CARBONDALE     SUNNY     77  58  51 NE3       30.03F
6HR MIN TEMP:  75; 6HR MAX TEMP:  81;

$$

ILZ067-068-072-073-078-083-087-091-250100-
SOUTHEAST ILLINOIS

CITY           SKY/WX    TMP DP  RH WIND       PRES   REMARKS
$$

ABBREVIATIONS USED IN REMARKS
   TC - TEMPERATURE IN CELSIUS
  WCI - WIND CHILL INDEX
   HX - HEAT INDEX
  VSB - VISIBILITY
$$



USA.gov is the U.S. government's official web portal to all federal, state and local government web resources and services.